• In Österreich
  • Länderverzeichnis
  • Für 7 Tage
  • Wassertemperatur
  • Satellitenkarten
  • Wetterkarte
  • News
  • Widgets
  • user-avatar
    Anmelden

    Stündliche Wetter Dzierzbin

    Heute, 20 September, Donnerstag

    Zeit Temperatur Niederschläge Wind Luftdruck Luftfeuchtigkeit
    00:00 +21°C° 0 mm 2 m/S 753 mmHg 68%
    01:00 +20°C° 0 mm 2 m/S 752 mmHg 68%
    02:00 +20°C° 0 mm 2 m/S 752 mmHg 69%
    03:00 +19°C° 0 mm 2 m/S 752 mmHg 70%
    04:00 +19°C° 0 mm 2 m/S 753 mmHg 71%
    05:00 +19°C° 0 mm 2 m/S 753 mmHg 70%
    06:00 +20°C° 0 mm 2 m/S 753 mmHg 69%
    07:00 +20°C° 0 mm 3 m/S 753 mmHg 64%
    08:00 +22°C° 0 mm 3 m/S 753 mmHg 59%
    09:00 +25°C° 0 mm 3 m/S 753 mmHg 53%
    10:00 +27°C° 0 mm 3 m/S 753 mmHg 48%
    11:00 +28°C° 0 mm 3 m/S 753 mmHg 45%
    12:00 +29°C° 0 mm 3 m/S 752 mmHg 43%
    13:00 +30°C° 0 mm 4 m/S 752 mmHg 40%
    14:00 +30°C° 0 mm 3 m/S 752 mmHg 40%
    15:00 +30°C° 0 mm 3 m/S 752 mmHg 41%
    16:00 +30°C° 0 mm 3 m/S 751 mmHg 42%
    17:00 +28°C° 0 mm 3 m/S 751 mmHg 46%
    18:00 +26°C° 0 mm 2 m/S 751 mmHg 50%
    19:00 +25°C° 0 mm 2 m/S 751 mmHg 54%
    20:00 +24°C° 0 mm 3 m/S 751 mmHg 55%
    21:00 +22°C° 0 mm 3 m/S 751 mmHg 57%
    22:00 +22°C° 0 mm 3 m/S 751 mmHg 58%
    23:00 +21°C° 0 mm 3 m/S 751 mmHg 59%

    Morgen, 21 September, Freitag

    Zeit Temperatur Niederschläge Wind Luftdruck Luftfeuchtigkeit
    00:00 +21°C° 0 mm 3 m/S 751 mmHg 60%
    01:00 +20°C° 0 mm 3 m/S 751 mmHg 62%
    02:00 +20°C° 0 mm 3 m/S 750 mmHg 64%
    03:00 +19°C° 0 mm 3 m/S 750 mmHg 66%
    04:00 +19°C° 0 mm 3 m/S 750 mmHg 68%
    05:00 +19°C° 0 mm 4 m/S 750 mmHg 68%
    06:00 +20°C° 0 mm 4 m/S 749 mmHg 69%
    07:00 +20°C° 0 mm 4 m/S 749 mmHg 69%
    08:00 +22°C° 0 mm 5 m/S 749 mmHg 62%
    09:00 +25°C° 0 mm 5 m/S 748 mmHg 55%
    10:00 +27°C° 0 mm 6 m/S 748 mmHg 49%
    11:00 +27°C° 0 mm 6 m/S 747 mmHg 45%
    12:00 +28°C° 0 mm 7 m/S 747 mmHg 41%
    13:00 +29°C° 0 mm 7 m/S 746 mmHg 36%
    14:00 +29°C° 0 mm 7 m/S 745 mmHg 37%
    15:00 +29°C° 0 mm 6 m/S 745 mmHg 38%
    16:00 +28°C° 0 mm 6 m/S 744 mmHg 39%
    17:00 +27°C° 0 mm 6 m/S 744 mmHg 42%
    18:00 +26°C° 0 mm 6 m/S 744 mmHg 46%
    19:00 +24°C° 0 mm 7 m/S 744 mmHg 49%
    20:00 +22°C° 0.3 mm 7 m/S 745 mmHg 57%
    21:00 +20°C° 0.3 mm 8 m/S 745 mmHg 65%
    22:00 +17°C° 0.3 mm 8 m/S 746 mmHg 74%
    23:00 +16°C° 0.3 mm 7 m/S 747 mmHg 73%

    übermorgen, 22 September, Samstag

    Zeit Temperatur Niederschläge Wind Luftdruck Luftfeuchtigkeit
    00:00 +15°C° 0.3 mm 6 m/S 748 mmHg 72%
    01:00 +14°C° 0.3 mm 5 m/S 749 mmHg 71%
    02:00 +13°C° 0 mm 5 m/S 750 mmHg 69%
    03:00 +13°C° 0 mm 6 m/S 750 mmHg 67%
    04:00 +11°C° 0 mm 6 m/S 751 mmHg 65%
    05:00 +11°C° 0 mm 6 m/S 751 mmHg 64%
    06:00 +11°C° 0 mm 6 m/S 752 mmHg 64%
    07:00 +11°C° 0 mm 6 m/S 752 mmHg 63%
    08:00 +12°C° 0 mm 7 m/S 752 mmHg 59%
    09:00 +14°C° 0 mm 7 m/S 752 mmHg 55%
    10:00 +15°C° 0 mm 7 m/S 752 mmHg 50%
    11:00 +16°C° 0 mm 7 m/S 752 mmHg 48%
    12:00 +16°C° 0 mm 7 m/S 752 mmHg 45%
    13:00 +17°C° 0 mm 7 m/S 752 mmHg 43%
    14:00 +17°C° 0 mm 7 m/S 752 mmHg 43%
    15:00 +17°C° 0 mm 6 m/S 752 mmHg 44%
    16:00 +16°C° 0 mm 6 m/S 751 mmHg 44%
    17:00 +15°C° 0 mm 5 m/S 752 mmHg 48%
    18:00 +14°C° 0 mm 5 m/S 752 mmHg 51%
    19:00 +14°C° 0 mm 4 m/S 752 mmHg 55%
    20:00 +13°C° 0 mm 4 m/S 752 mmHg 57%
    21:00 +13°C° 0 mm 4 m/S 752 mmHg 59%
    22:00 +12°C° 0 mm 5 m/S 753 mmHg 61%
    23:00 +12°C° 0 mm 4 m/S 753 mmHg 62%

    23 September, Sonntag

    Zeit Temperatur Niederschläge Wind Luftdruck Luftfeuchtigkeit
    00:00 +12°C° 0 mm 4 m/S 752 mmHg 62%
    01:00 +12°C° 0 mm 4 m/S 752 mmHg 63%
    02:00 +11°C° 0 mm 4 m/S 752 mmHg 64%
    03:00 +11°C° 0 mm 4 m/S 752 mmHg 65%
    04:00 +11°C° 0 mm 4 m/S 752 mmHg 66%
    05:00 +11°C° 0 mm 4 m/S 752 mmHg 65%
    06:00 +12°C° 0 mm 4 m/S 752 mmHg 64%
    07:00 +12°C° 0 mm 4 m/S 752 mmHg 63%
    08:00 +12°C° 0.1 mm 4 m/S 751 mmHg 63%
    09:00 +13°C° 0.1 mm 4 m/S 751 mmHg 63%
    10:00 +13°C° 0.1 mm 4 m/S 751 mmHg 64%
    11:00 +14°C° 0 mm 4 m/S 750 mmHg 62%
    12:00 +14°C° 0 mm 5 m/S 749 mmHg 61%
    13:00 +15°C° 0 mm 5 m/S 748 mmHg 60%
    14:00 +14°C° 0.6 mm 5 m/S 747 mmHg 66%
    15:00 +14°C° 0.6 mm 4 m/S 745 mmHg 73%
    16:00 +13°C° 0.6 mm 3 m/S 744 mmHg 79%
    17:00 +14°C° 0.6 mm 5 m/S 743 mmHg 81%
    18:00 +15°C° 0.6 mm 6 m/S 742 mmHg 82%
    19:00 +15°C° 0.6 mm 8 m/S 740 mmHg 83%
    20:00 +16°C° 2.4 mm 8 m/S 739 mmHg 85%
    21:00 +17°C° 2.4 mm 9 m/S 738 mmHg 86%
    22:00 +17°C° 2.4 mm 10 m/S 737 mmHg 87%
    23:00 +17°C° 1.9 mm 9 m/S 736 mmHg 86%

    24 September, Montag

    Zeit Temperatur Niederschläge Wind Luftdruck Luftfeuchtigkeit
    00:00 +17°C° 1.9 mm 9 m/S 736 mmHg 86%
    01:00 +17°C° 1.9 mm 9 m/S 735 mmHg 85%
    02:00 +16°C° 0.7 mm 9 m/S 736 mmHg 84%
    03:00 +13°C° 0.7 mm 10 m/S 736 mmHg 84%
    04:00 +11°C° 0.7 mm 10 m/S 737 mmHg 83%
    05:00 +11°C° 0.2 mm 10 m/S 739 mmHg 81%
    06:00 +9°C° 0.2 mm 10 m/S 742 mmHg 79%
    07:00 +9°C° 0.2 mm 10 m/S 744 mmHg 77%
    08:00 +9°C° 0.1 mm 10 m/S 745 mmHg 73%
    09:00 +11°C° 0.1 mm 11 m/S 746 mmHg 68%
    10:00 +11°C° 0.1 mm 11 m/S 747 mmHg 64%
    11:00 +12°C° 0.2 mm 11 m/S 748 mmHg 60%
    12:00 +12°C° 0.2 mm 11 m/S 749 mmHg 57%
    13:00 +12°C° 0.2 mm 11 m/S 750 mmHg 53%
    14:00 +12°C° 0.3 mm 10 m/S 751 mmHg 55%
    15:00 +12°C° 0.3 mm 9 m/S 752 mmHg 57%
    16:00 +11°C° 0.3 mm 9 m/S 753 mmHg 59%
    17:00 +10°C° 0 mm 7 m/S 754 mmHg 61%
    18:00 +9°C° 0 mm 6 m/S 755 mmHg 64%
    19:00 +8°C° 0 mm 5 m/S 755 mmHg 67%
    20:00 +8°C° 0 mm 5 m/S 756 mmHg 66%
    21:00 +8°C° 0 mm 5 m/S 757 mmHg 66%
    22:00 +7°C° 0 mm 5 m/S 757 mmHg 65%
    23:00 +7°C° 0 mm 5 m/S 758 mmHg 67%

    25 September, Dienstag

    Zeit Temperatur Niederschläge Wind Luftdruck Luftfeuchtigkeit
    00:00 +7°C° 0 mm 5 m/S 758 mmHg 69%
    01:00 +7°C° 0 mm 5 m/S 758 mmHg 71%
    02:00 +6°C° 0 mm 5 m/S 759 mmHg 72%
    03:00 +6°C° 0 mm 5 m/S 759 mmHg 73%
    04:00 +6°C° 0 mm 5 m/S 759 mmHg 74%
    05:00 +5°C° 0 mm 6 m/S 759 mmHg 75%
    06:00 +5°C° 0 mm 6 m/S 760 mmHg 76%
    07:00 +5°C° 0 mm 6 m/S 760 mmHg 77%
    08:00 +8°C° 0 mm 7 m/S 760 mmHg 72%
    09:00 +9°C° 0 mm 7 m/S 760 mmHg 68%
    10:00 +10°C° 0 mm 8 m/S 760 mmHg 63%
    11:00 +11°C° 0.1 mm 8 m/S 760 mmHg 62%
    12:00 +11°C° 0.1 mm 8 m/S 759 mmHg 60%
    13:00 +12°C° 0.1 mm 8 m/S 759 mmHg 59%
    14:00 +11°C° 0.6 mm 9 m/S 758 mmHg 63%
    15:00 +11°C° 0.6 mm 10 m/S 758 mmHg 67%
    16:00 +9°C° 0.6 mm 10 m/S 757 mmHg 72%
    17:00 +10°C° 1.8 mm 9 m/S 757 mmHg 75%
    18:00 +10°C° 1.8 mm 8 m/S 758 mmHg 79%
    19:00 +9°C° 1.8 mm 7 m/S 758 mmHg 83%
    20:00 +9°C° 1 mm 6 m/S 758 mmHg 84%
    21:00 +9°C° 1 mm 6 m/S 758 mmHg 86%
    22:00 +8°C° 1 mm 5 m/S 759 mmHg 87%
    23:00 +8°C° 0 mm 5 m/S 759 mmHg 87%
    Mehr zeigen